Location: Asheville, NC
(35.6000°N, 82.5500°W)
Time: 07:00:33
(UTC-05:00)

Vanguard 2 - Pass Details

Date: 18 February 2018
Orbit: 553 x 2939 km, 32.9° (Epoch: 18 February)

Event Time Altitude Azimuth Distance (km) Brightness Sun altitude
Rises 17:08:54 0° 227° (SW) 6,078 13.6 11.9°
Reaches altitude 10° 17:13:47 10° 221° (SW) 4,711 12.9 11.0°
Maximum altitude 17:24:40 38° 160° (SSE) 2,181 10.0 9.0°
Drops below altitude 10° 17:31:35 10° 94° (E) 2,990 10.0 7.6°
Sets 17:33:58 0° 86° (E) 3,694 10.4 7.2°
